Lincoln County, Oregon, United States
Lat: 44.65N, Lon: 123.85W
Wx Zone: ORZ004
Local Info
Past Weather Observations for Yesterday

NOTE: This archive is for the closest National Weather Service station to Lincoln County. Information may differ from the station used for current weather conditions.

Click here for Long-term Archive

Time Weather Temperature Dewpoint Humidity Pressure Winds Precip Visibility
23:55
Overcast
Fog And Mist
55°F / 13°C 54°F / 12°C 94% 30.15 in
(1021 mb)
N 5.8 mph
(N 9 kph)
- 5SM
23:35
Overcast
55°F / 13°C 55°F / 13°C 100% 30.15 in
(1021 mb)
NNW 9.2 mph
(NNW 15 kph)
- 7SM
23:15
Overcast
55°F / 13°C 55°F / 13°C 100% 30.15 in
(1021 mb)
N 6.9 mph
(N 11 kph)
- 10SM
22:55
Overcast
55°F / 13°C 55°F / 13°C 100% 30.15 in
(1021 mb)
N 8.1 mph
(N 13 kph)
- 7SM
22:35
Overcast
55°F / 13°C 55°F / 13°C 100% 30.15 in
(1021 mb)
N 6.9 mph
(N 11 kph)
- 7SM
22:15
Overcast
55°F / 13°C 54°F / 12°C 94% 30.15 in
(1021 mb)
N 9.2 mph
(N 15 kph)
- 7SM
21:55
Overcast
Fog And Mist
55°F / 13°C 54°F / 12°C 94% 30.15 in
(1021 mb)
N 8.1 mph
(N 13 kph)
- 5SM
21:35
Overcast
Fog And Mist
55°F / 13°C 54°F / 12°C 94% 30.15 in
(1021 mb)
N 9.2 mph
(N 15 kph)
- 5SM
21:15
Overcast
55°F / 13°C 54°F / 12°C 94% 30.15 in
(1021 mb)
N 8.1 mph
(N 13 kph)
- 7SM
20:55
Overcast
55°F / 13°C 54°F / 12°C 94% 30.15 in
(1021 mb)
N 9.2 mph
(N 15 kph)
- 7SM
20:35
Overcast
55°F / 13°C 55°F / 13°C 100% 30.12 in
(1020 mb)
N 6.9 mph
(N 11 kph)
- 7SM
20:15
Overcast
55°F / 13°C 55°F / 13°C 100% 30.12 in
(1020 mb)
N 10.4 mph
(N 17 kph)
- 7SM
19:55
Overcast
57°F / 14°C 55°F / 13°C 94% 30.12 in
(1020 mb)
N 12.7 mph
(N 20 kph)
- 7SM
19:35
Overcast
Fog And Mist
55°F / 13°C 55°F / 13°C 100% 30.12 in
(1020 mb)
N 13.8 mph
(N 22 kph)
- 4SM
19:15
Overcast
Fog And Mist
55°F / 13°C 54°F / 12°C 94% 30.12 in
(1020 mb)
NNW 18.4 mph
(NNW 30 kph)
- 2SM
18:55
Mostly Cloudy
Fog And Mist
57°F / 14°C 55°F / 13°C 94% 30.12 in
(1020 mb)
N 16.1 mph
(N 26 kph)
- 5SM
18:35
Mostly Cloudy
Fog And Mist
57°F / 14°C 55°F / 13°C 94% 30.12 in
(1020 mb)
N 13.8 mph
(N 22 kph)
- 5SM
18:15
Mostly Cloudy
59°F / 15°C 55°F / 13°C 88% 30.12 in
(1020 mb)
N 15 mph
(N 24 kph)
- 7SM
17:55
Mostly Cloudy
59°F / 15°C 55°F / 13°C 88% 30.12 in
(1020 mb)
N 15 mph
(N 24 kph)
- 10SM
17:35
Overcast
61°F / 16°C 55°F / 13°C 83% 30.12 in
(1020 mb)
N 16.1 mph
(N 26 kph)
- 10SM
17:15
Overcast
61°F / 16°C 55°F / 13°C 83% 30.15 in
(1021 mb)
N 16.1 mph
(N 26 kph)
- 7SM
16:55
Overcast
61°F / 16°C 55°F / 13°C 83% 30.15 in
(1021 mb)
N 17.3 mph
(N 28 kph)
- 7SM
16:35
Overcast
61°F / 16°C 55°F / 13°C 83% 30.15 in
(1021 mb)
N 13.8 mph
(N 22 kph)
- 7SM
16:15
Overcast
61°F / 16°C 55°F / 13°C 83% 30.15 in
(1021 mb)
N 16.1 mph
(N 26 kph)
- 10SM
15:55
Overcast
63°F / 17°C 55°F / 13°C 77% 30.15 in
(1021 mb)
NNW 17.3 mph
(NNW 28 kph)
- 10SM
15:15
Partly Cloudy
64°F / 18°C 57°F / 14°C 78% 30.15 in
(1021 mb)
NNW 19.6 mph
(NNW 32 kph)
- 10SM
14:55
Clear
64°F / 18°C 57°F / 14°C 78% 30.15 in
(1021 mb)
NNW 20.7 mph
(NNW 33 kph)
- 10SM
14:35
Clear
64°F / 18°C 57°F / 14°C 78% 30.15 in
(1021 mb)
NNW 20.7 mph
(NNW 33 kph)
- 10SM
14:15
Partly Cloudy
64°F / 18°C 57°F / 14°C 78% 30.15 in
(1021 mb)
NNW 21.9 mph
(NNW 35 kph)
- 10SM
13:55
Partly Cloudy
64°F / 18°C 57°F / 14°C 78% 30.15 in
(1021 mb)
NNW 21.9 mph
(NNW 35 kph)
- 10SM
13:35
Partly Cloudy
64°F / 18°C 57°F / 14°C 78% 30.15 in
(1021 mb)
NNW 19.6 mph
(NNW 32 kph)
- 10SM
13:15
Mostly Cloudy
64°F / 18°C 57°F / 14°C 78% 30.15 in
(1021 mb)
NNW 24.2 mph
(NNW 39 kph)
- 10SM
13:00
Mostly Cloudy
64°F / 18°C 57°F / 14°C 78% 30.15 in
(1021 mb)
NNW 20.7 mph
(NNW 33 kph)
- 10SM
12:35
Mostly Cloudy
64°F / 18°C 57°F / 14°C 78% 30.18 in
(1022 mb)
NNW 24.2 mph
(NNW 39 kph)
- 10SM
12:15
Mostly Cloudy
63°F / 17°C 55°F / 13°C 77% 30.15 in
(1021 mb)
N 21.9 mph
(N 35 kph)
- 10SM
11:55
Partly Cloudy
63°F / 17°C 55°F / 13°C 77% 30.18 in
(1022 mb)
NNW 21.9 mph
(NNW 35 kph)
- 10SM
11:35
Partly Cloudy
63°F / 17°C 57°F / 14°C 83% 30.15 in
(1021 mb)
NNW 18.4 mph
(NNW 30 kph)
- 10SM
11:15
Clear
64°F / 18°C 57°F / 14°C 78% 30.15 in
(1021 mb)
NNW 17.3 mph
(NNW 28 kph)
- 10SM
10:55
Clear
64°F / 18°C 57°F / 14°C 78% 30.15 in
(1021 mb)
NNW 19.6 mph
(NNW 32 kph)
- 10SM
10:35
Clear
64°F / 18°C 55°F / 13°C 73% 30.15 in
(1021 mb)
N 16.1 mph
(N 26 kph)
- 10SM
10:15
Clear
64°F / 18°C 57°F / 14°C 78% 30.15 in
(1021 mb)
NNW 17.3 mph
(NNW 28 kph)
- 10SM
09:55
Mostly Cloudy
64°F / 18°C 57°F / 14°C 78% 30.15 in
(1021 mb)
NNW 15 mph
(NNW 24 kph)
- 10SM
09:35
Overcast
63°F / 17°C 57°F / 14°C 83% 30.18 in
(1022 mb)
N 10.4 mph
(N 17 kph)
- 10SM
09:15
Overcast
61°F / 16°C 55°F / 13°C 83% 30.18 in
(1022 mb)
N 12.7 mph
(N 20 kph)
- 10SM
08:55
Overcast
59°F / 15°C 55°F / 13°C 88% 30.18 in
(1022 mb)
N 13.8 mph
(N 22 kph)
- 10SM
08:35
Overcast
59°F / 15°C 55°F / 13°C 88% 30.18 in
(1022 mb)
N 12.7 mph
(N 20 kph)
- 10SM
08:15
Overcast
59°F / 15°C 55°F / 13°C 88% 30.18 in
(1022 mb)
N 12.7 mph
(N 20 kph)
- 10SM
07:55
Overcast
55°F / 13°C 54°F / 12°C 94% 30.18 in
(1022 mb)
NNW 10.4 mph
(NNW 17 kph)
- 10SM
07:35
Overcast
55°F / 13°C 54°F / 12°C 94% 30.18 in
(1022 mb)
N 5.8 mph
(N 9 kph)
- 7SM
07:15
Overcast
55°F / 13°C 54°F / 12°C 94% 30.15 in
(1021 mb)
NNW 3.5 mph
(NNW 6 kph)
- 7SM
06:55
Overcast
55°F / 13°C 54°F / 12°C 94% 30.15 in
(1021 mb)
NE 3.5 mph
(NE 6 kph)
- 7SM
06:35
Overcast
55°F / 13°C 54°F / 12°C 94% 30.15 in
(1021 mb)
NE 4.6 mph
(NE 7 kph)
- 10SM
06:15
Overcast
55°F / 13°C 54°F / 12°C 94% 30.15 in
(1021 mb)
NE 4.6 mph
(NE 7 kph)
- 10SM
05:55
Overcast
Fog And Mist
55°F / 13°C 54°F / 12°C 94% 30.15 in
(1021 mb)
Calm - 5SM
05:35
Overcast
55°F / 13°C 54°F / 12°C 94% 30.15 in
(1021 mb)
Calm - 10SM
05:15
Overcast
55°F / 13°C 54°F / 12°C 94% 30.15 in
(1021 mb)
NNE 3.5 mph
(NNE 6 kph)
- 7SM
04:55
Overcast
54°F / 12°C 54°F / 12°C 100% 30.15 in
(1021 mb)
Calm - 7SM
04:35
Overcast
55°F / 13°C 54°F / 12°C 94% 30.15 in
(1021 mb)
N 5.8 mph
(N 9 kph)
- 10SM
04:15
Overcast
54°F / 12°C 54°F / 12°C 100% 30.15 in
(1021 mb)
NNE 3.5 mph
(NNE 6 kph)
- 7SM
03:55
Overcast
54°F / 12°C 54°F / 12°C 100% 30.15 in
(1021 mb)
NNE 3.5 mph
(NNE 6 kph)
- 7SM
03:35
Overcast
54°F / 12°C 54°F / 12°C 100% 30.15 in
(1021 mb)
N 4.6 mph
(N 7 kph)
- 7SM
03:15
Overcast
54°F / 12°C 54°F / 12°C 100% 30.15 in
(1021 mb)
Calm - 7SM
02:55
Mostly Cloudy
52°F / 11°C 50°F / 10°C 94% 30.15 in
(1021 mb)
Calm - 7SM
02:35
Partly Cloudy
52°F / 11°C 52°F / 11°C 100% 30.15 in
(1021 mb)
Calm - 7SM
02:15
Clear
Fog And Mist
54°F / 12°C 52°F / 11°C 94% 30.15 in
(1021 mb)
Calm - 5SM
01:55
Clear
Fog And Mist
54°F / 12°C 52°F / 11°C 94% 30.15 in
(1021 mb)
NNW 6.9 mph
(NNW 11 kph)
- 5SM
01:35
Clear
52°F / 11°C 50°F / 10°C 94% 30.12 in
(1020 mb)
N 4.6 mph
(N 7 kph)
- 7SM
01:15
Clear
52°F / 11°C 50°F / 10°C 94% 30.12 in
(1020 mb)
Calm - 7SM
00:55
Clear
52°F / 11°C 50°F / 10°C 94% 30.12 in
(1020 mb)
Calm - 7SM
00:35
Clear
54°F / 12°C 52°F / 11°C 94% 30.15 in
(1021 mb)
N 4.6 mph
(N 7 kph)
- 7SM
00:15
Clear
54°F / 12°C 54°F / 12°C 100% 30.15 in
(1021 mb)
N 5.8 mph
(N 9 kph)
- 7SM
Time Weather Temperature Dewpoint Humidity Pressure Winds Precip Visibility


Weather for websites

WeatherForYou.com, LLC is not responsible for any damages or problems caused by this service. Current weather conditions are obtained from the closest station including government and personal stations which may have varying degrees of accuracy. Weather forecasts are derived from the NOAA NDFD. Like all things, this site belongs to Jesus Christ... He just trusts us to maintain it. If you have any questions or comments email webmaster@weatherforyou.com

Copyright © 2016, WeatherForYou.com LLC. All rights reserved.